Time,TemperatureF,DewpointF,PressureIn,WindDirection,WindDirectionDegrees,WindSpeedMPH,WindSpeedGustMPH,Humidity,HourlyPrecipIn,Conditions,Clouds,dailyrainin,SolarRadiationWatts/m^2,SoftwareType,DateUTC
2013-08-24 00:00:00,57.0,56.0,-100.00,South,180,1.0,-999.0,96,-99.99,,,-99.99,0.000000,,2013-08-24 04:00:00,
2013-08-24 00:44:00,57.0,56.0,-100.00,South,180,1.0,-999.0,96,-99.99,,,-99.99,0.000000,,2013-08-24 04:44:00,
2013-08-24 00:54:00,57.0,56.0,-100.00,South,180,1.0,-999.0,96,-99.99,,,-99.99,0.000000,,2013-08-24 04:54:00,
2013-08-24 01:00:00,55.0,54.0,-100.00,SE,135,0.0,-999.0,96,-99.99,,,-99.99,0.000000,,2013-08-24 05:00:00,
2013-08-24 01:43:00,55.0,54.0,-100.00,SE,135,0.0,-999.0,96,-99.99,,,-99.99,0.000000,,2013-08-24 05:43:00,
2013-08-24 01:53:00,55.0,54.0,-100.00,SE,135,0.0,-999.0,96,-99.99,,,-99.99,0.000000,,2013-08-24 05:53:00,
2013-08-24 03:00:00,54.0,53.0,-100.00,ESE,112,0.0,-999.0,97,-99.99,,,-99.99,0.000000,,2013-08-24 07:00:00,
2013-08-24 03:43:00,54.0,53.0,-100.00,ESE,112,0.0,-999.0,97,-99.99,,,-99.99,0.000000,,2013-08-24 07:43:00,
2013-08-24 03:53:00,54.0,53.0,-100.00,ESE,112,0.0,-999.0,97,-99.99,,,-99.99,0.000000,,2013-08-24 07:53:00,
2013-08-24 04:00:00,53.0,52.0,-100.00,SE,135,0.0,-999.0,97,-99.99,,,-99.99,0.000000,,2013-08-24 08:00:00,
2013-08-24 04:42:00,53.0,52.0,-100.00,SE,135,0.0,-999.0,97,-99.99,,,-99.99,0.000000,,2013-08-24 08:42:00,
2013-08-24 04:52:00,53.0,52.0,-100.00,SE,135,0.0,-999.0,97,-99.99,,,-99.99,0.000000,,2013-08-24 08:52:00,
2013-08-24 05:00:00,52.0,51.0,-100.00,SE,135,0.0,-999.0,97,-99.99,,,-99.99,0.000000,,2013-08-24 09:00:00,
2013-08-24 05:44:00,52.0,51.0,-100.00,SE,135,0.0,-999.0,97,-99.99,,,-99.99,0.000000,,2013-08-24 09:44:00,
2013-08-24 05:53:00,52.0,51.0,-100.00,SE,135,0.0,-999.0,97,-99.99,,,-99.99,0.000000,,2013-08-24 09:53:00,
2013-08-24 06:00:00,53.0,52.0,-100.00,SE,135,1.0,-999.0,97,-99.99,,,-99.99,0.000000,,2013-08-24 10:00:00,
2013-08-24 06:42:00,53.0,52.0,-100.00,SE,135,1.0,-999.0,97,-99.99,,,-99.99,0.000000,,2013-08-24 10:42:00,
2013-08-24 06:53:00,53.0,52.0,-100.00,SE,135,1.0,-999.0,97,-99.99,,,-99.99,0.000000,,2013-08-24 10:53:00,
2013-08-24 07:00:00,53.0,52.0,-100.00,ESE,112,1.0,-999.0,97,-99.99,,,-99.99,1.160000,,2013-08-24 11:00:00,
2013-08-24 07:42:00,53.0,52.0,-100.00,ESE,112,1.0,-999.0,97,-99.99,,,-99.99,1.160000,,2013-08-24 11:42:00,
2013-08-24 07:52:00,53.0,52.0,-100.00,ESE,112,1.0,-999.0,97,-99.99,,,-99.99,1.160000,,2013-08-24 11:52:00,
2013-08-24 08:00:00,54.0,53.0,-100.00,ESE,112,1.0,-999.0,97,-99.99,,,-99.99,29.000000,,2013-08-24 12:00:00,
2013-08-24 08:42:00,54.0,53.0,-100.00,ESE,112,1.0,-999.0,97,-99.99,,,-99.99,29.000000,,2013-08-24 12:42:00,
2013-08-24 10:00:00,67.0,60.0,-100.00,SE,135,2.0,-999.0,78,-99.99,,,-99.99,363.079987,,2013-08-24 14:00:00,
2013-08-24 10:42:00,67.0,60.0,-100.00,SE,135,2.0,-999.0,78,-99.99,,,-99.99,363.079987,,2013-08-24 14:42:00,
2013-08-24 10:52:00,67.0,60.0,-100.00,SE,135,2.0,-999.0,78,-99.99,,,-99.99,363.079987,,2013-08-24 14:52:00,
2013-08-24 12:00:00,75.0,57.0,-100.00,South,180,4.0,-999.0,53,-99.99,,,-99.99,614.799988,,2013-08-24 16:00:00,
2013-08-24 12:42:00,75.0,57.0,-100.00,South,180,4.0,-999.0,53,-99.99,,,-99.99,614.799988,,2013-08-24 16:42:00,
2013-08-24 12:53:00,75.0,57.0,-100.00,South,180,4.0,-999.0,53,-99.99,,,-99.99,614.799988,,2013-08-24 16:53:00,
2013-08-24 13:00:00,78.0,56.0,-100.00,SSE,157,4.0,-999.0,47,-99.99,,,-99.99,707.599976,,2013-08-24 17:00:00,
2013-08-24 13:42:00,78.0,56.0,-100.00,SSE,157,4.0,-999.0,47,-99.99,,,-99.99,707.599976,,2013-08-24 17:42:00,
2013-08-24 13:52:00,78.0,56.0,-100.00,SSE,157,4.0,-999.0,47,-99.99,,,-99.99,707.599976,,2013-08-24 17:52:00,
2013-08-24 15:00:00,81.0,56.0,-100.00,South,180,3.0,-999.0,42,-99.99,,,-99.99,734.280029,,2013-08-24 19:00:00,
2013-08-24 15:42:00,81.0,56.0,-100.00,South,180,3.0,-999.0,42,-99.99,,,-99.99,734.280029,,2013-08-24 19:42:00,
2013-08-24 15:52:00,81.0,56.0,-100.00,South,180,3.0,-999.0,42,-99.99,,,-99.99,734.280029,,2013-08-24 19:52:00,
2013-08-24 16:00:00,81.0,55.0,-100.00,SSE,157,3.0,-999.0,41,-99.99,,,-99.99,664.679993,,2013-08-24 20:00:00,
2013-08-24 16:42:00,81.0,55.0,-100.00,SSE,157,3.0,-999.0,41,-99.99,,,-99.99,664.679993,,2013-08-24 20:42:00,
2013-08-24 16:52:00,81.0,55.0,-100.00,SSE,157,3.0,-999.0,41,-99.99,,,-99.99,664.679993,,2013-08-24 20:52:00,
2013-08-24 18:00:00,80.0,59.0,-100.00,WNW,292,3.0,-999.0,49,-99.99,,,-99.99,419.920013,,2013-08-24 22:00:00,
2013-08-24 18:43:00,80.0,59.0,-100.00,WNW,292,3.0,-999.0,49,-99.99,,,-99.99,419.920013,,2013-08-24 22:43:00,
2013-08-24 18:53:00,80.0,59.0,-100.00,WNW,292,3.0,-999.0,49,-99.99,,,-99.99,419.920013,,2013-08-24 22:53:00,
2013-08-24 19:00:00,79.0,60.0,-100.00,WSW,247,2.0,-999.0,52,-99.99,,,-99.99,251.720001,,2013-08-24 23:00:00,
2013-08-24 19:43:00,79.0,60.0,-100.00,WSW,247,2.0,-999.0,52,-99.99,,,-99.99,251.720001,,2013-08-24 23:43:00,
2013-08-24 19:53:00,79.0,60.0,-100.00,WSW,247,2.0,-999.0,52,-99.99,,,-99.99,251.720001,,2013-08-24 23:53:00,
2013-08-24 20:00:00,76.0,62.0,-100.00,WSW,247,1.0,-999.0,62,-99.99,,,-99.99,109.040001,,2013-08-25 00:00:00,
2013-08-24 20:42:00,76.0,62.0,-100.00,WSW,247,1.0,-999.0,62,-99.99,,,-99.99,109.040001,,2013-08-25 00:42:00,
2013-08-24 20:52:00,76.0,62.0,-100.00,WSW,247,1.0,-999.0,62,-99.99,,,-99.99,109.040001,,2013-08-25 00:52:00,
2013-08-24 21:00:00,68.0,63.0,-100.00,NNW,337,0.0,-999.0,84,-99.99,,,-99.99,9.280000,,2013-08-25 01:00:00,
2013-08-24 21:43:00,68.0,63.0,-100.00,NNW,337,0.0,-999.0,84,-99.99,,,-99.99,9.280000,,2013-08-25 01:43:00,
2013-08-24 21:52:00,68.0,63.0,-100.00,NNW,337,0.0,-999.0,84,-99.99,,,-99.99,9.280000,,2013-08-25 01:52:00,
2013-08-24 22:00:00,63.0,61.0,-100.00,WSW,247,0.0,-999.0,93,-99.99,,,-99.99,0.000000,,2013-08-25 02:00:00,
2013-08-24 22:42:00,63.0,61.0,-100.00,WSW,247,0.0,-999.0,93,-99.99,,,-99.99,0.000000,,2013-08-25 02:42:00,
2013-08-24 22:52:00,63.0,61.0,-100.00,WSW,247,0.0,-999.0,93,-99.99,,,-99.99,0.000000,,2013-08-25 02:52:00,
2013-08-24 23:00:00,-999.0,-99.9,-100.00,South,180,0.0,-999.0,-999,-99.99,,,-99.99,,,2013-08-25 03:00:00,
2013-08-24 23:44:00,61.0,59.0,-100.00,South,180,0.0,-999.0,95,-99.99,,,-99.99,0.000000,,2013-08-25 03:44:00,
2013-08-24 23:54:00,61.0,59.0,-100.00,South,180,0.0,-999.0,95,-99.99,,,-99.99,0.000000,,2013-08-25 03:54:00,